CW1569 Weather Reports


Display with metric or nautical units.
time (UTC)temp
F
wind
direction
speed
MPH
gust
MPH
rain 1hr
in
rain 24hr
in
rain mn
in
humidity
%
barometer
mb
20260903091839 79 212 2.0 5.0 0.00 0.00 0.00 87 1010.5
20260903091331 79 211 2.0 5.0 0.00 0.00 0.00 87 1010.6
20260903090838 79 360 3.0 5.0 0.00 0.00 0.00 87 1010.6
20260903090328 79 210 3.0 5.0 0.00 0.00 0.00 87 1010.6
20260903085905 79 210 2.0 5.0 0.00 0.00 0.00 88 1010.7
20260903085351 79 210 2.0 5.0 0.00 0.00 0.00 88 1010.7
20260903084841 79 210 1.0 7.0 0.00 0.00 0.00 88 1010.7
20260903084348 78 360 4.0 7.0 0.00 0.00 0.00 88 1010.7
20260903083834 78 360 4.0 8.0 0.00 0.00 0.00 89 1010.7
20260903083342 78 209 3.0 8.0 0.00 0.00 0.00 89 1010.7
20260903082849 78 360 4.0 7.0 0.00 0.00 0.00 89 1010.7
20260903082338 78 207 4.0 6.0 0.00 0.00 0.00 89 1010.7
20260903081827 78 360 2.0 6.0 0.00 0.00 0.00 89 1010.6
20260903081404 79 19 2.0 5.0 0.00 0.00 0.00 89 1010.6
20260903080830 79 360 4.0 5.0 0.00 0.00 0.00 89 1010.5
20260903080340 79 207 2.0 4.0 0.00 0.00 0.00 89 1010.4
20260903075830 79 360 2.0 5.0 0.00 0.00 0.00 89 1010.4
20260903075338 79 360 3.0 5.0 0.00 0.00 0.00 89 1010.4
20260903074827 79 211 0.0 0.0 0.00 0.00 0.00 89 1010.4
20260903074336 79 211 0.0 0.0 0.00 0.00 0.00 89 1010.3
20260903073845 79 211 0.0 0.0 0.00 0.00 0.00 89 1010.3
20260903073353 79 360 0.0 0.0 0.00 0.00 0.00 89 1010.2
20260903072822 79 360 0.0 0.0 0.00 0.00 0.00 89 1010.3
20260903072354 79 360 0.0 0.0 0.00 0.00 0.00 89 1010.4
20260903071842 79 211 0.0 0.0 0.00 0.00 0.00 90 1010.4
20260903071353 79 209 0.0 0.0 0.00 0.00 0.00 90 1010.5
20260903070841 78 211 0.0 0.0 0.00 0.00 0.00 90 1010.3
20260903070330 78 211 0.0 0.0 0.00 0.00 0.00 90 1010.4
20260903065837 78 360 0.0 0.0 0.00 0.00 0.00 90 1010.4
20260903065326 78 211 0.0 0.0 0.00 0.00 0.00 90 1010.4
20260903064837 78 211 0.0 0.0 0.00 0.00 0.00 90 1010.5
20260903064324 79 211 0.0 0.0 0.00 0.00 0.00 90 1010.5
20260903063832 79 211 0.0 0.0 0.00 0.00 0.00 90 1010.5
20260903063340 79 211 0.0 0.0 0.00 0.00 0.00 90 1010.5
20260903062830 79 211 0.0 0.0 0.00 0.00 0.00 90 1010.5
20260903062340 79 211 0.0 2.0 0.00 0.00 0.00 90 1010.5
20260903061828 79 360 0.0 3.0 0.00 0.00 0.00 90 1010.5
20260903061339 79 210 0.0 3.0 0.00 0.00 0.00 90 1010.5
20260903060827 79 210 1.0 4.0 0.00 0.00 0.00 90 1010.6
20260903060336 79 360 3.0 4.0 0.00 0.00 0.00 90 1010.7
20260903055825 79 210 1.0 3.0 0.00 0.00 0.00 90 1010.7
20260903055335 79 360 2.0 4.0 0.00 0.00 0.00 90 1010.8
20260903054824 79 210 2.0 4.0 0.00 0.00 0.00 90 1010.6
20260903054335 79 207 2.0 4.0 0.00 0.00 0.00 90 1010.6
20260903053824 79 200 2.0 4.0 0.00 0.00 0.00 90 1010.6
20260903053327 79 209 3.0 5.0 0.00 0.00 0.00 90 1010.7
20260903052836 79 209 2.0 5.0 0.00 0.00 0.00 90 1010.7
20260903052325 79 360 3.0 5.0 0.00 0.00 0.00 90 1010.8
20260903051835 79 211 3.0 5.0 0.00 0.00 0.00 89 1010.8
20260903051327 79 192 3.0 6.0 0.00 0.00 0.00 89 1010.7
20260903050834 79 209 3.0 6.0 0.00 0.00 0.00 89 1010.6
20260903050343 79 209 4.0 6.0 0.00 0.00 0.00 89 1010.5
20260903045850 79 211 4.0 6.0 0.00 0.00 0.00 89 1010.5
20260903045338 79 360 4.0 5.0 0.00 0.00 0.00 89 1010.4
20260903044827 79 360 3.0 5.0 0.00 0.00 0.00 89 1010.4
20260903044400 79 210 3.0 5.0 0.00 0.00 0.00 88 1010.3
20260903043826 80 360 3.0 5.0 0.00 0.00 0.00 88 1010.3
20260903043335 80 360 2.0 5.0 0.00 0.00 0.00 87 1010.3
20260903042847 80 360 4.0 6.0 0.00 0.00 0.00 87 1010.4
20260903042351 80 360 3.0 6.0 0.00 0.00 0.00 87 1010.3
20260903041836 80 210 2.0 5.0 0.00 0.00 0.00 87 1010.3
20260903041327 80 360 4.0 5.0 0.00 0.00 0.00 87 1010.3
20260903040836 80 210 2.0 5.0 0.00 0.00 0.00 87 1010.2
20260903040326 80 360 3.0 5.0 0.00 0.00 0.00 86 1010.3
20260903035836 80 360 3.0 5.0 0.00 0.00 0.00 86 1010.3
20260903035323 81 208 3.0 6.0 0.00 0.00 0.00 86 1010.3
20260903034859 81 207 3.0 6.0 0.00 0.00 0.00 86 1010.3
20260903034347 81 200 3.0 7.0 0.00 0.00 0.00 85 1010.3
20260903033855 81 206 4.0 7.0 0.00 0.00 0.00 85 1010.3
20260903033323 81 210 4.0 5.0 0.00 0.00 0.00 85 1010.3
20260903032833 81 360 2.0 5.0 0.00 0.00 0.00 85 1010.4
20260903032322 81 360 3.0 4.0 0.00 0.00 0.00 84 1010.4
20260903031831 81 360 3.0 4.0 0.00 0.00 0.00 84 1010.3
20260903031342 81 213 1.0 3.0 0.00 0.00 0.00 84 1010.3
20260903030831 81 213 1.0 5.0 0.00 0.00 0.00 83 1010.3
20260903030338 82 213 1.0 5.0 0.00 0.00 0.00 83 1010.3
20260903025827 82 212 3.0 5.0 0.00 0.00 0.00 82 1010.3
20260903025337 82 211 3.0 5.0 0.00 0.00 0.00 82 1010.3
20260903024846 82 360 3.0 5.0 0.00 0.00 0.00 81 1010.4
20260903024354 83 211 3.0 5.0 0.00 0.00 0.00 81 1010.3
20260903023840 83 360 3.0 6.0 0.00 0.00 0.00 80 1010.3
20260903023330 83 187 4.0 6.0 0.00 0.00 0.00 79 1010.3
20260903022839 83 360 4.0 5.0 0.00 0.00 0.00 79 1010.3
20260903022326 83 360 3.0 7.0 0.00 0.00 0.00 79 1010.3
20260903021835 83 360 3.0 7.0 0.00 0.00 0.00 79 1010.3
20260903021347 83 360 3.0 5.0 0.00 0.00 0.00 79 1010.3
20260903020835 83 210 0.0 3.0 0.00 0.00 0.00 79 1010.2
20260903020345 83 210 0.0 2.0 0.00 0.00 0.00 79 1010.3
20260903015832 83 210 0.0 1.0 0.00 0.00 0.00 79 1010.1
20260903015322 83 360 0.0 1.0 0.00 0.00 0.00 79 1010.1
20260903014858 83 210 0.0 0.0 0.00 0.00 0.00 78 1010.1
20260903014329 84 210 0.0 0.0 0.00 0.00 0.00 77 1010.1
20260903013837 84 209 0.0 0.0 0.00 0.00 0.00 76 1010.1
20260903013324 85 208 0.0 1.0 0.00 0.00 0.00 76 1010.2
20260903012833 85 360 0.0 3.0 0.00 0.00 0.00 75 1010.1
20260903012322 85 210 1.0 3.0 0.00 0.00 0.00 75 1010.1
20260903011831 85 360 1.0 3.0 0.00 0.00 0.00 74 1010.0
20260903011335 85 360 0.0 0.0 0.00 0.00 0.00 74 1010.0
20260903010822 85 360 0.0 0.0 0.00 0.00 0.00 74 1009.9
20260903010331 85 360 0.0 0.0 0.00 0.00 0.00 73 1009.8
20260903005841 85 360 0.0 0.0 0.00 0.00 0.00 74 1009.8
20260903005330 86 360 0.0 0.0 0.00 0.00 0.00 73 1009.7
20260903004839 86 210 0.0 0.0 0.00 0.00 0.00 72 1009.7
20260903004330 86 360 0.0 0.0 0.00 0.00 0.00 72 1009.6
20260903003837 86 210 0.0 0.0 0.00 0.00 0.00 72 1009.6
20260903003326 86 210 0.0 0.0 0.00 0.00 0.00 72 1009.6
20260903002834 86 210 0.0 0.0 0.00 0.00 0.00 72 1009.7
20260903002324 87 209 0.0 0.0 0.00 0.00 0.00 72 1009.6
20260903001832 87 209 0.0 0.0 0.00 0.00 0.00 71 1009.6
20260903001342 87 360 0.0 0.0 0.00 0.00 0.00 70 1009.5
20260903000830 88 360 0.0 0.0 0.00 0.00 0.00 70 1009.7
20260903000340 88 360 0.0 0.0 0.00 0.00 0.00 70 1009.8
20260902235828 88 207 0.0 2.0 0.00 0.00 0.00 69 1009.7
20260902235338 88 209 0.0 3.0 0.00 0.00 0.00 68 1009.7
20260902234827 88 209 2.0 3.0 0.00 0.00 0.00 68 1009.6
20260902234338 88 360 2.0 5.0 0.00 0.00 0.00 67 1009.6
20260902233826 89 360 2.0 5.0 0.00 0.00 0.00 67 1009.5
20260902233335 89 360 2.0 5.0 0.00 0.00 0.00 67 1009.5
20260902232845 89 360 1.0 6.0 0.00 0.00 0.00 66 1009.5
20260902232350 89 205 4.0 7.0 0.00 0.00 0.00 65 1009.5
20260902231838 90 360 4.0 7.0 0.00 0.00 0.00 65 1009.4
20260902231349 90 360 2.0 6.0 0.00 0.00 0.00 65 1009.5
20260902230834 90 360 3.0 6.0 0.00 0.00 0.00 65 1009.4
20260902230327 89 360 1.0 5.0 0.00 0.00 0.00 65 1009.3
20260902225836 90 360 1.0 5.0 0.00 0.00 0.00 64 1009.4
20260902225324 90 360 2.0 9.0 0.00 0.00 0.00 64 1009.4
20260902224834 90 360 2.0 9.0 0.00 0.00 0.00 63 1009.4
20260902224345 90 202 1.0 10.0 0.00 0.00 0.00 62 1009.3
20260902223837 91 360 5.0 10.0 0.00 0.00 0.00 61 1009.4
20260902223325 91 360 3.0 8.0 0.00 0.00 0.00 61 1009.5
20260902222835 91 360 3.0 8.0 0.00 0.00 0.00 61 1009.5
20260902222324 91 360 2.0 7.0 0.00 0.00 0.00 61 1009.5
20260902221834 91 360 3.0 7.0 0.00 0.00 0.00 60 1009.6
20260902221325 92 360 2.0 6.0 0.00 0.00 0.00 62 1009.6
20260902220832 92 360 1.0 5.0 0.00 0.00 0.00 61 1009.5
20260902220340 92 360 1.0 5.0 0.00 0.00 0.00 60 1009.6
20260902215829 92 360 1.0 6.0 0.00 0.00 0.00 59 1009.6
20260902215334 92 360 1.0 9.0 0.00 0.00 0.00 58 1009.6
20260902214823 92 360 2.0 10.0 0.00 0.00 0.00 59 1009.7
20260902214401 92 194 7.0 11.0 0.00 0.00 0.00 57 1009.7
20260902213847 92 360 4.0 13.0 0.00 0.00 0.00 58 1009.7
20260902213334 92 360 4.0 13.0 0.00 0.00 0.00 59 1009.6
20260902212823 92 360 7.0 12.0 0.00 0.00 0.00 59 1009.7
20260902212332 91 360 4.0 11.0 0.00 0.00 0.00 60 1009.7
20260902211840 91 360 4.0 11.0 0.00 0.00 0.00 59 1009.8
20260902211332 91 360 5.0 11.0 0.00 0.00 0.00 59 1009.8
20260902210840 91 360 6.0 15.0 0.00 0.00 0.00 58 1009.8
20260902210331 91 360 8.0 17.0 0.00 0.00 0.00 56 1009.8
20260902205838 92 360 7.0 17.0 0.00 0.00 0.00 56 1009.8
20260902205343 92 360 12.0 17.0 0.00 0.00 0.00 56 1009.7
20260902204832 92 360 6.0 16.0 0.00 0.00 0.00 58 1009.8
20260902204343 92 360 11.0 16.0 0.00 0.00 0.00 56 1009.9
20260902203831 92 360 7.0 17.0 0.00 0.00 0.00 56 1009.8
20260902203342 92 360 12.0 17.0 0.00 0.00 0.00 55 1009.8
20260902202829 92 360 7.0 15.0 0.00 0.00 0.00 58 1009.8
20260902202336 92 360 10.0 13.0 0.00 0.00 0.00 57 1009.8
20260902201823 92 360 7.0 13.0 0.00 0.00 0.00 58 1009.8
20260902201334 91 202 7.0 13.0 0.00 0.00 0.00 58 1009.8
20260902200841 91 207 7.0 13.0 0.00 0.00 0.00 58 1009.9
20260902200331 92 204 7.0 14.0 0.00 0.00 0.00 59 1009.9
20260902195839 92 194 9.0 14.0 0.00 0.00 0.00 59 1010.1
20260902195329 92 360 8.0 16.0 0.00 0.00 0.00 59 1010.0
20260902194838 92 360 6.0 16.0 0.00 0.00 0.00 58 1010.1
20260902194329 92 360 9.0 15.0 0.00 0.00 0.00 56 1010.1
20260902193834 92 216 5.0 16.0 0.00 0.00 0.00 58 1010.1
20260902193323 91 360 8.0 16.0 0.00 0.00 0.00 58 1010.1
20260902192833 91 360 4.0 10.0 0.00 0.00 0.00 59 1010.3
20260902192323 91 360 8.0 11.0 0.00 0.00 0.00 60 1010.3
20260902191833 91 360 4.0 13.0 0.00 0.00 0.00 61 1010.4
20260902191324 91 360 8.0 13.0 0.00 0.00 0.00 61 1010.4
20260902190831 91 360 5.0 9.0 0.00 0.00 0.00 62 1010.5
20260902190340 91 208 6.0 11.0 0.00 0.00 0.00 61 1010.3
20260902185831 91 360 6.0 13.0 0.00 0.00 0.00 59 1010.3
20260902185339 91 360 8.0 16.0 0.00 0.00 0.00 60 1010.5
20260902184828 91 360 7.0 16.0 0.00 0.00 0.00 59 1010.5
20260902184404 91 180 7.0 12.0 0.00 0.00 0.00 60 1010.6
20260902183830 91 201 8.0 12.0 0.00 0.00 0.00 61 1010.5
20260902183337 91 186 5.0 16.0 0.00 0.00 0.00 60 1010.5
20260902182827 91 360 10.0 16.0 0.00 0.00 0.00 58 1010.6
20260902182336 91 360 8.0 13.0 0.00 0.00 0.00 60 1010.6
20260902181825 91 205 9.0 13.0 0.00 0.00 0.00 59 1010.7
20260902181402 90 199 4.0 13.0 0.00 0.00 0.00 61 1010.8
20260902180829 90 360 6.0 13.0 0.00 0.00 0.00 62 1010.7
20260902180338 90 360 8.0 12.0 0.00 0.00 0.00 61 1010.7
20260902175827 90 360 7.0 11.0 0.00 0.00 0.00 61 1010.8
20260902175402 90 360 6.0 10.0 0.00 0.00 0.00 63 1010.8
20260902174830 90 201 3.0 9.0 0.00 0.00 0.00 64 1010.7
20260902174340 90 360 3.0 8.0 0.00 0.00 0.00 64 1010.7
20260902173827 90 360 5.0 7.0 0.00 0.00 0.00 62 1010.8
20260902173336 90 360 3.0 9.0 0.00 0.00 0.00 63 1010.8
20260902172826 90 360 4.0 11.0 0.00 0.00 0.00 63 1010.8
20260902172335 90 360 6.0 11.0 0.00 0.00 0.00 62 1010.7
20260902171824 90 360 3.0 9.0 0.00 0.00 0.00 63 1010.8
20260902171335 90 360 4.0 11.0 0.00 0.00 0.00 64 1010.8
20260902170823 90 360 6.0 12.0 0.00 0.00 0.00 63 1010.9
20260902170355 89 360 5.0 12.0 0.00 0.00 0.00 63 1011.0
20260902165823 89 360 2.0 9.0 0.00 0.00 0.00 66 1010.9
20260902165332 89 360 5.0 8.0 0.00 0.00 0.00 64 1011.0
20260902164822 88 180 2.0 6.0 0.00 0.00 0.00 66 1011.0
20260902164334 88 360 2.0 8.0 0.00 0.00 0.00 66 1011.1
20260902163822 88 360 4.0 8.0 0.00 0.00 0.00 66 1011.2
20260902163331 88 360 2.0 6.0 0.00 0.00 0.00 69 1011.2
20260902162841 87 360 4.0 6.0 0.00 0.00 0.00 67 1011.1
20260902162330 87 360 4.0 7.0 0.00 0.00 0.00 67 1011.3
20260902161839 87 360 2.0 7.0 0.00 0.00 0.00 68 1011.2
20260902161328 86 202 1.0 8.0 0.00 0.00 0.00 69 1011.4
20260902160836 86 360 1.0 8.0 0.00 0.00 0.00 70 1011.4
20260902160325 86 206 1.0 7.0 0.00 0.00 0.00 69 1011.3
20260902155832 86 360 2.0 5.0 0.00 0.00 0.00 69 1011.4
20260902155341 85 360 2.0 7.0 0.00 0.00 0.00 71 1011.4
20260902154830 85 360 4.0 7.0 0.00 0.01 0.00 69 1011.3
20260902154340 85 360 3.0 6.0 0.00 0.01 0.00 69 1011.4
20260902153846 84 360 2.0 8.0 0.00 0.01 0.00 70 1011.6
20260902153336 84 360 3.0 8.0 0.00 0.01 0.00 71 1011.6
20260902152825 84 194 3.0 8.0 0.00 0.01 0.00 71 1011.5
20260902152334 84 360 3.0 9.0 0.00 0.01 0.00 70 1011.5
20260902151823 84 210 5.0 9.0 0.00 0.01 0.00 71 1011.5
20260902151355 84 360 3.0 6.0 0.00 0.01 0.00 72 1011.4
20260902150909 83 200 2.0 6.0 0.00 0.01 0.00 74 1011.5
20260902150356 83 360 2.0 6.0 0.00 0.01 0.00 74 1011.5
20260902145842 83 360 1.0 6.0 0.00 0.01 0.00 74 1011.4
20260902145349 82 360 3.0 6.0 0.00 0.01 0.00 76 1011.6
20260902144836 82 360 2.0 7.0 0.00 0.01 0.00 76 1011.9
20260902144326 81 207 2.0 7.0 0.00 0.01 0.00 77 1011.7
20260902143902 81 360 2.0 5.0 0.00 0.01 0.00 78 1011.9
20260902143328 80 223 1.0 5.0 0.00 0.01 0.00 78 1011.9
20260902142837 80 233 2.0 7.0 0.00 0.01 0.00 78 1011.9
20260902142327 80 207 3.0 8.0 0.00 0.01 0.00 79 1011.8
20260902141836 80 196 5.0 8.0 0.00 0.01 0.00 78 1011.8
20260902141345 80 360 5.0 7.0 0.00 0.01 0.00 79 1011.8
20260902140853 80 210 1.0 6.0 0.00 0.01 0.00 81 1011.9
20260902140342 79 360 2.0 6.0 0.00 0.01 0.00 81 1011.8
20260902135829 79 223 2.0 5.0 0.00 0.01 0.00 80 1011.9
20260902135340 80 225 2.0 5.0 0.00 0.01 0.00 79 1012.1
20260902134827 80 360 3.0 6.0 0.00 0.01 0.00 78 1012.1
20260902134340 80 223 2.0 6.0 0.00 0.01 0.00 78 1012.1
20260902133828 79 360 1.0 7.0 0.00 0.01 0.00 79 1012.3
20260902133337 79 261 3.0 7.0 0.00 0.01 0.00 79 1012.4
20260902132828 79 360 3.0 7.0 0.00 0.01 0.00 79 1012.2
20260902132337 78 360 2.0 6.0 0.00 0.01 0.00 81 1012.5
20260902131827 78 360 1.0 6.0 0.00 0.01 0.00 81 1012.2
20260902131342 78 360 2.0 7.0 0.00 0.01 0.00 81 1012.4
20260902130830 78 360 3.0 7.0 0.00 0.01 0.00 81 1012.7
20260902130338 78 360 2.0 6.0 0.00 0.01 0.00 80 1012.5
20260902125828 78 265 1.0 10.0 0.00 0.01 0.00 80 1012.4
20260902125334 78 360 4.0 10.0 0.00 0.01 0.00 80 1012.6
20260902124824 78 360 3.0 14.0 0.00 0.01 0.00 79 1012.2
20260902124341 78 19 7.0 14.0 0.00 0.01 0.00 80 1012.6
20260902123828 78 360 4.0 8.0 0.00 0.01 0.00 80 1011.8
20260902123337 78 210 2.0 7.0 0.00 0.01 0.00 80 1011.7
20260902122847 78 211 3.0 7.0 0.00 0.01 0.00 81 1011.7
20260902122356 77 360 3.0 7.0 0.00 0.01 0.00 82 1011.6
20260902121842 77 360 2.0 7.0 0.00 0.01 0.00 82 1011.6
20260902121453 77 360 2.0 6.0 0.00 0.01 0.00 82 1011.7
20260902120828 77 360 4.0 6.0 0.00 0.01 0.00 82 1011.6
20260902120336 77 360 2.0 5.0 0.00 0.01 0.00 82 1011.4
20260902115847 76 360 3.0 6.0 0.00 0.01 0.00 82 1011.6
20260902115334 76 360 3.0 6.0 0.00 0.01 0.00 82 1011.6
20260902114825 76 360 2.0 5.0 0.00 0.01 0.00 82 1011.4
20260902114332 76 211 2.0 5.0 0.00 0.01 0.00 82 1011.4
20260902113838 76 360 2.0 6.0 0.00 0.01 0.00 82 1011.4
20260902113327 77 211 2.0 6.0 0.00 0.01 0.00 82 1011.3
20260902112838 77 360 1.0 6.0 0.00 0.01 0.00 82 1011.3
20260902112328 77 360 1.0 7.0 0.00 0.01 0.00 82 1011.3
20260902111835 76 360 5.0 7.0 0.00 0.01 0.00 83 1011.3
20260902111326 76 215 2.0 5.0 0.00 0.01 0.00 83 1011.3
20260902110833 76 360 2.0 6.0 0.00 0.01 0.00 83 1011.2
20260902110343 76 360 3.0 6.0 0.00 0.01 0.00 84 1011.3
20260902105854 76 360 2.0 6.0 0.00 0.01 0.00 84 1011.3
20260902105322 76 213 3.0 7.0 0.00 0.01 0.00 84 1011.3
20260902104831 76 360 4.0 7.0 0.00 0.01 0.00 84 1011.4
20260902104323 76 360 4.0 7.0 0.00 0.01 0.00 84 1011.4
20260902103833 76 212 5.0 8.0 0.00 0.01 0.01 84 1011.3
20260902103322 76 360 5.0 8.0 0.00 0.01 0.01 84 1011.4
20260902102831 76 360 5.0 7.0 0.00 0.01 0.01 84 1011.4
20260902102341 77 360 5.0 8.0 0.00 0.01 0.01 84 1011.4
20260902101828 77 196 4.0 8.0 0.00 0.01 0.01 84 1011.4
20260902101339 77 360 4.0 6.0 0.00 0.01 0.01 84 1011.4
20260902100828 76 209 5.0 7.0 0.00 0.01 0.01 84 1011.4
20260902100338 76 360 4.0 7.0 0.00 0.01 0.01 85 1011.5
20260902095828 76 360 4.0 6.0 0.00 0.01 0.01 85 1011.5
20260902095339 76 360 4.0 6.0 0.00 0.01 0.01 85 1011.5
20260902094827 76 360 4.0 6.0 0.00 0.01 0.01 86 1011.5
20260902094358 76 211 3.0 5.0 0.00 0.01 0.01 86 1011.5
20260902093824 76 360 3.0 5.0 0.00 0.01 0.01 86 1011.6
20260902093335 76 360 3.0 4.0 0.00 0.01 0.01 86 1011.6
20260902092822 76 207 0.0 3.0 0.00 0.01 0.01 86 1011.5
20260902092332 76 360 1.0 4.0 0.00 0.01 0.01 85 1011.6